Carmi, IL

3:33 AM CDT on April 23, 2018 (GMT -0500)
Carmi Municipal

Weather History for KCUL - January, 2014

Change the Weather History Date:

Tuesday, January 14, 2014

  Actual Average (KEHR) Record (KEHR)
Temperature  
Mean Temperature 40 °F -  
Max Temperature 52 °F 40 °F 68 °F (1952)
Min Temperature 29 °F 23 °F -2 °F (2018)
Degree Days  
Heating Degree Days 24    
Moisture  
Dew Point 33 °F    
Average Humidity 83    
Maximum Humidity 100    
Minimum Humidity 53    
Precipitation  
Precipitation 0.00 in - - ()
Sea Level Pressure  
Sea Level Pressure 29.91 in    
Wind  
Wind Speed 7 mph (West)    
Max Wind Speed 22 mph    
Max Gust Speed 26 mph    
Visibility 9 miles    
Events Rain    
Averages and records for this station are not official NWS values.
T = Trace of Precipitation, MM = Missing Value Source: NWS Daily Summary

Daily Weather History Graph

Daily Weather History Graph

Search for Another Location

Airport or City:

Astronomy

Jan. 14, 2014 Rise Set
Actual Time 7:07 AM CST 4:55 PM CST
Civil Twilight 6:38 AM CST 5:24 PM CST
Nautical Twilight 6:06 AM CST 5:57 PM CST
Astronomical Twilight 5:34 AM CST 6:28 PM CST
Moon 4:00 PM CST (1/14) 5:42 AM CST (1/14)
Length of Visible Light 10h 45m
Length of Day
9h 47m
Waxing Gibbous, 98% of the Moon is Illuminated
Jan 14
Waxing Gibbous
Jan 15
Full
Jan 23
Last Quarter
Jan 30
New
Feb 6
First Quarter

Hourly Weather History & Observations

Time (CST) Temp. Windchill Dew Point Humidity Pressure Visibility Wind Dir Wind Speed Gust Speed Precip Events Conditions
12:15 AM 35.2 °F 29.5 °F 33.8 °F 94% 29.87 in 10.0 mi WNW 6.9 mph - N/A   Clear
12:35 AM 35.1 °F 30.1 °F 33.4 °F 94% 29.87 in 10.0 mi WNW 5.8 mph - N/A   Clear
12:55 AM 35.1 °F 32.2 °F 34.0 °F 96% 29.87 in 10.0 mi West 3.5 mph - N/A   Clear
1:15 AM 34.7 °F - 33.8 °F 97% 29.87 in 10.0 mi Calm Calm - N/A   Clear
1:35 AM 33.3 °F 30.2 °F 32.4 °F 96% 29.87 in 10.0 mi WSW 3.5 mph - N/A   Clear
1:55 AM 32.4 °F 27.9 °F 32.2 °F 99% 29.88 in 10.0 mi West 4.6 mph - N/A   Clear
2:15 AM 32.0 °F - 32.0 °F 100% 29.88 in 10.0 mi Calm Calm - N/A   Clear
2:35 AM 32.0 °F 27.5 °F 32.0 °F 100% 29.89 in 10.0 mi WSW 4.6 mph - N/A   Clear
2:55 AM 31.5 °F 26.8 °F 31.5 °F 100% 29.88 in 10.0 mi WSW 4.6 mph - N/A   Clear
3:15 AM 32.0 °F 28.7 °F 32.0 °F 100% 29.87 in 10.0 mi SW 3.5 mph - N/A   Clear
3:35 AM 32.0 °F - 32.0 °F 100% 29.88 in 10.0 mi Calm Calm - N/A   Clear
3:55 AM 31.8 °F - 31.8 °F 100% 29.87 in 7.0 mi Calm Calm - N/A   Clear
4:15 AM 30.7 °F - 30.7 °F 100% 29.88 in 5.0 mi Calm Calm - N/A   Clear
4:35 AM 30.2 °F - 30.2 °F 100% 29.88 in 5.0 mi Calm Calm - N/A   Clear
4:55 AM 29.3 °F 25.6 °F 29.3 °F 100% 29.88 in 5.0 mi SSW 3.5 mph - N/A   Clear
5:15 AM 30.0 °F - 30.0 °F 100% 29.88 in 7.0 mi Calm Calm - N/A   Clear
5:35 AM 30.2 °F - 30.2 °F 100% 29.88 in 7.0 mi Calm Calm - N/A   Clear
5:55 AM 29.5 °F 24.5 °F 29.5 °F 100% 29.87 in 7.0 mi SE 4.6 mph - N/A   Clear
6:15 AM 30.6 °F 24.7 °F 30.6 °F 100% 29.87 in 7.0 mi SE 5.8 mph - N/A   Clear
6:35 AM 31.5 °F 25.8 °F 31.5 °F 100% 29.87 in 7.0 mi SE 5.8 mph - N/A   Clear
6:55 AM 31.3 °F 24.7 °F 31.3 °F 100% 29.86 in 7.0 mi SSE 6.9 mph - N/A   Clear
7:15 AM 31.1 °F 24.5 °F 31.1 °F 100% 29.86 in 7.0 mi SSE 6.9 mph - N/A   Clear
7:35 AM 32.0 °F 26.4 °F 32.0 °F 100% 29.86 in 5.0 mi South 5.8 mph - N/A   Clear
7:55 AM 32.9 °F 26.7 °F 32.9 °F 100% 29.87 in 7.0 mi South 6.9 mph - N/A   Clear
8:15 AM 33.8 °F 27.7 °F 33.8 °F 100% 29.87 in 7.0 mi SSE 6.9 mph - N/A   Clear
8:35 AM 35.1 °F 27.9 °F 34.9 °F 99% 29.87 in 7.0 mi SSE 9.2 mph - N/A   Clear
8:55 AM 36.5 °F 29.7 °F 35.6 °F 97% 29.87 in 7.0 mi SSE 9.2 mph - N/A   Clear
9:15 AM 38.3 °F 31.4 °F 36.1 °F 92% 29.87 in 10.0 mi SSE 10.4 mph - N/A   Clear
9:35 AM 39.6 °F 33.0 °F 36.5 °F 89% 29.86 in 10.0 mi SSE 10.4 mph - N/A   Clear
9:55 AM 41.4 °F 35.2 °F 36.9 °F 84% 29.85 in 10.0 mi SSE 10.4 mph - N/A   Clear
10:15 AM 43.3 °F 37.7 °F 36.5 °F 77% 29.84 in 10.0 mi South 10.4 mph - N/A   Scattered Clouds
10:35 AM 45.0 °F 38.5 °F 37.2 °F 74% 29.84 in 10.0 mi South 13.8 mph - N/A   Scattered Clouds
10:55 AM 46.6 °F - 35.6 °F 66% 29.84 in 10.0 mi South 15.0 mph - N/A   Mostly Cloudy
11:15 AM 47.5 °F - 36.5 °F 66% 29.83 in 10.0 mi South 13.8 mph - N/A   Mostly Cloudy
11:35 AM 50.5 °F - 35.8 °F 57% 29.82 in 10.0 mi SSW 18.4 mph 23.0 mph N/A   Mostly Cloudy
11:55 AM 52.3 °F - 35.4 °F 53% 29.81 in 10.0 mi SW 18.4 mph 23.0 mph N/A   Mostly Cloudy
12:15 PM 51.4 °F - 35.6 °F 55% 29.81 in 10.0 mi WSW 15.0 mph - N/A   Mostly Cloudy
12:35 PM 51.1 °F - 34.7 °F 54% 29.82 in 10.0 mi West 19.6 mph 24.2 mph N/A   Mostly Cloudy
12:55 PM 50.7 °F - 36.9 °F 59% 29.83 in 10.0 mi West 21.9 mph 26.5 mph N/A Rain Light Rain
1:15 PM 50.0 °F - 37.0 °F 61% 29.83 in 10.0 mi WNW 19.6 mph 25.3 mph N/A   Mostly Cloudy
1:35 PM 48.6 °F - 37.9 °F 67% 29.84 in 10.0 mi WNW 19.6 mph 25.3 mph N/A   Mostly Cloudy
1:55 PM 45.5 °F 38.9 °F 37.8 °F 74% 29.85 in 10.0 mi WNW 15.0 mph 21.9 mph N/A   Overcast
2:15 PM 44.8 °F 37.7 °F 38.7 °F 79% 29.87 in 10.0 mi WNW 16.1 mph 21.9 mph N/A   Light Drizzle
2:35 PM 44.4 °F 37.9 °F 38.3 °F 79% 29.89 in 10.0 mi WNW 13.8 mph - N/A   Overcast
2:55 PM 43.9 °F 39.9 °F 38.3 °F 81% 29.89 in 10.0 mi WNW 6.9 mph - N/A   Overcast
3:15 PM 43.9 °F 39.3 °F 38.3 °F 81% 29.90 in 10.0 mi WNW 8.1 mph - N/A   Overcast
3:35 PM 43.9 °F 40.5 °F 38.1 °F 80% 29.91 in 10.0 mi West 5.8 mph - N/A   Overcast
3:55 PM 43.9 °F 39.9 °F 37.8 °F 79% 29.92 in 10.0 mi West 6.9 mph - N/A   Mostly Cloudy
4:15 PM 43.7 °F 40.3 °F 38.1 °F 81% 29.93 in 10.0 mi West 5.8 mph - N/A   Mostly Cloudy
4:35 PM 42.8 °F 40.1 °F 38.3 °F 84% 29.94 in 10.0 mi West 4.6 mph - N/A   Mostly Cloudy
4:55 PM 42.3 °F 38.6 °F 37.6 °F 83% 29.95 in 10.0 mi West 5.8 mph - N/A   Scattered Clouds
5:15 PM 42.8 °F 38.0 °F 35.8 °F 76% 29.96 in 10.0 mi West 8.1 mph - N/A   Clear
5:35 PM 40.5 °F 35.1 °F 33.1 °F 75% 29.97 in 10.0 mi WNW 8.1 mph - N/A   Clear
5:55 PM 38.8 °F 34.6 °F 32.0 °F 76% 29.97 in 10.0 mi WNW 5.8 mph - N/A   Clear
6:15 PM 38.5 °F 35.0 °F 31.6 °F 76% 29.98 in 10.0 mi West 4.6 mph - N/A   Clear
6:35 PM 39.0 °F 34.8 °F 30.7 °F 72% 29.99 in 10.0 mi WNW 5.8 mph - N/A   Clear
6:55 PM 38.1 °F 32.9 °F 30.7 °F 75% 30.00 in 10.0 mi NW 6.9 mph - N/A   Clear
7:15 PM 37.4 °F 33.8 °F 30.9 °F 77% 30.00 in 10.0 mi WNW 4.6 mph - N/A   Clear
7:35 PM 36.5 °F 32.7 °F 30.2 °F 78% 30.01 in 10.0 mi WNW 4.6 mph - N/A   Clear
7:55 PM 35.8 °F 26.9 °F 30.0 °F 80% 30.02 in 10.0 mi NW 13.8 mph 18.4 mph N/A   Clear
8:15 PM 35.6 °F 28.6 °F 29.3 °F 78% 30.03 in 10.0 mi NNW 9.2 mph - N/A   Clear
8:35 PM 35.1 °F 29.3 °F 28.8 °F 78% 30.02 in 10.0 mi NNW 6.9 mph - N/A   Clear
8:55 PM 33.8 °F 29.6 °F 27.9 °F 79% 30.03 in 10.0 mi NW 4.6 mph - N/A   Clear
9:15 PM 33.1 °F 30.0 °F 28.6 °F 84% 30.03 in 10.0 mi WNW 3.5 mph - N/A   Scattered Clouds
9:35 PM 34.2 °F 28.2 °F 28.4 °F 79% 30.05 in 10.0 mi NW 6.9 mph - N/A   Mostly Cloudy
9:55 PM 34.3 °F 27.7 °F 28.9 °F 81% 30.05 in 10.0 mi NW 8.1 mph - N/A   Mostly Cloudy
10:15 PM 34.9 °F 24.9 °F 27.0 °F 73% 30.05 in 10.0 mi NW 16.1 mph 24.2 mph N/A   Mostly Cloudy
10:35 PM 34.2 °F 25.2 °F 24.8 °F 69% 30.06 in 10.0 mi WNW 12.7 mph 18.4 mph N/A   Scattered Clouds
10:55 PM 33.3 °F 23.2 °F 22.5 °F 65% 30.05 in 10.0 mi WNW 15.0 mph 21.9 mph N/A   Clear
11:15 PM 32.5 °F 24.2 °F 21.2 °F 63% 30.05 in 10.0 mi WNW 10.4 mph - N/A   Clear
11:35 PM 32.0 °F 23.0 °F 21.6 °F 65% 30.06 in 10.0 mi WNW 11.5 mph - N/A   Scattered Clouds
11:55 PM 32.0 °F 21.2 °F 19.9 °F 61% 30.06 in 10.0 mi WNW 16.1 mph 20.7 mph N/A   Scattered Clouds